Powrót do katalogu

STARLINK-6163

AktywnyŁącznośćVLEO
NORAD 57128·PAYLOAD·🇺🇸 United States

Wystrzelony Jun 23, 2023 z Cape Canaveral Space Force Station

Loading…

Następne Przeloty (najbliższe 24 godziny)

TLE

ŚwieżeSource: CelesTrak SupGP

Epoka: Sep 14, 2026, 21:06 UTC

1 57128C 23090AD  26257.87965278 -.00016852  00000+0 -61037-3 0  2571
2 57128  43.0021 292.8120 0001833 270.9831 314.6457 15.27586640    19

Śledź STARLINK-6163 w czasie rzeczywistym z AllMySat

Download on the App Store